Time,TemperatureF,DewpointF,PressureIn,WindDirection,WindDirectionDegrees,WindSpeedMPH,WindSpeedGustMPH,Humidity,HourlyPrecipIn,Conditions,Clouds,dailyrainin,SoftwareType,DateUTC
2013-12-26 01:12:00,32.0,22.0,-100.00,South,169,1.0,2.0,66,-99.99,,,-99.99,,2013-12-26 09:12:00,
2013-12-26 01:43:00,31.0,22.0,-100.00,North,-999,0.0,1.0,69,-99.99,,,-99.99,,2013-12-26 09:43:00,
2013-12-26 02:22:00,31.0,19.0,-100.00,SSE,150,2.0,2.0,61,-99.99,,,-99.99,,2013-12-26 10:22:00,
2013-12-26 02:32:00,31.0,19.0,-100.00,SSE,150,2.0,2.0,61,-99.99,,,-99.99,,2013-12-26 10:32:00,
2013-12-26 04:42:00,29.0,19.0,-100.00,North,-999,0.0,1.0,66,-99.99,,,-99.99,,2013-12-26 12:42:00,
2013-12-26 09:22:00,29.0,18.0,-100.00,SSE,168,2.0,2.0,64,-99.99,,,-99.99,,2013-12-26 17:22:00,
2013-12-26 09:32:00,29.0,18.0,-100.00,SSE,168,2.0,2.0,64,-99.99,,,-99.99,,2013-12-26 17:32:00,
2013-12-26 09:52:00,31.0,20.0,-100.00,SSE,154,2.0,2.0,64,-99.99,,,-99.99,,2013-12-26 17:52:00,
2013-12-26 10:02:00,31.0,20.0,-100.00,SSE,154,2.0,2.0,64,-99.99,,,-99.99,,2013-12-26 18:02:00,
2013-12-26 10:22:00,31.0,21.0,-100.00,North,-999,0.0,1.0,65,-99.99,,,-99.99,,2013-12-26 18:22:00,
2013-12-26 10:32:00,31.0,21.0,-100.00,North,-999,0.0,1.0,65,-99.99,,,-99.99,,2013-12-26 18:32:00,
2013-12-26 11:11:00,33.0,20.0,-100.00,North,-999,0.0,1.0,59,-99.99,,,-99.99,,2013-12-26 19:11:00,
2013-12-26 11:21:00,33.0,20.0,-100.00,North,-999,0.0,1.0,59,-99.99,,,-99.99,,2013-12-26 19:21:00,
2013-12-26 11:52:00,35.0,23.0,-100.00,North,-999,0.0,1.0,61,-99.99,,,-99.99,,2013-12-26 19:52:00,
2013-12-26 12:02:00,35.0,23.0,-100.00,North,-999,0.0,1.0,61,-99.99,,,-99.99,,2013-12-26 20:02:00,
2013-12-26 12:12:00,35.0,23.0,-100.00,North,-999,0.0,1.0,61,-99.99,,,-99.99,,2013-12-26 20:12:00,
2013-12-26 12:22:00,38.0,25.0,-100.00,WSW,250,2.0,3.0,60,-99.99,,,-99.99,,2013-12-26 20:22:00,
2013-12-26 12:32:00,38.0,25.0,-100.00,WSW,250,2.0,3.0,60,-99.99,,,-99.99,,2013-12-26 20:32:00,
2013-12-26 12:42:00,38.0,25.0,-100.00,WSW,250,2.0,3.0,60,-99.99,,,-99.99,,2013-12-26 20:42:00,
2013-12-26 12:52:00,39.0,25.0,-100.00,WSW,257,3.0,7.0,58,-99.99,,,-99.99,,2013-12-26 20:52:00,
2013-12-26 13:02:00,39.0,25.0,-100.00,WSW,257,3.0,7.0,58,-99.99,,,-99.99,,2013-12-26 21:02:00,
2013-12-26 13:21:00,39.0,25.0,-100.00,WNW,285,2.0,4.0,57,-99.99,,,-99.99,,2013-12-26 21:21:00,
2013-12-26 13:43:00,39.0,25.0,-100.00,SW,233,1.0,2.0,57,-99.99,,,-99.99,,2013-12-26 21:43:00,
2013-12-26 13:53:00,39.0,25.0,-100.00,SW,233,1.0,2.0,57,-99.99,,,-99.99,,2013-12-26 21:53:00,
2013-12-26 14:03:00,39.0,25.0,-100.00,SW,233,1.0,2.0,57,-99.99,,,-99.99,,2013-12-26 22:03:00,
2013-12-26 14:23:00,39.0,24.0,-100.00,South,191,1.0,1.0,55,-99.99,,,-99.99,,2013-12-26 22:23:00,
2013-12-26 14:33:00,39.0,24.0,-100.00,South,191,1.0,1.0,55,-99.99,,,-99.99,,2013-12-26 22:33:00,
2013-12-26 15:12:00,39.0,24.0,-100.00,South,176,1.0,2.0,54,-99.99,,,-99.99,,2013-12-26 23:12:00,
2013-12-26 15:22:00,39.0,24.0,-100.00,South,179,1.0,2.0,54,-99.99,,,-99.99,,2013-12-26 23:22:00,
2013-12-26 15:32:00,39.0,24.0,-100.00,South,179,1.0,2.0,54,-99.99,,,-99.99,,2013-12-26 23:32:00,
2013-12-26 15:53:00,40.0,23.0,-100.00,South,174,1.0,2.0,50,-99.99,,,-99.99,,2013-12-26 23:53:00,
2013-12-26 16:02:00,40.0,23.0,-100.00,South,174,1.0,2.0,50,-99.99,,,-99.99,,2013-12-27 00:02:00,
2013-12-26 16:11:00,40.0,23.0,-100.00,South,174,1.0,2.0,50,-99.99,,,-99.99,,2013-12-27 00:11:00,
2013-12-26 16:22:00,38.0,24.0,-100.00,South,172,2.0,2.0,57,-99.99,,,-99.99,,2013-12-27 00:22:00,
2013-12-26 16:32:00,38.0,24.0,-100.00,South,172,2.0,2.0,57,-99.99,,,-99.99,,2013-12-27 00:32:00,
2013-12-26 16:52:00,37.0,24.0,-100.00,South,175,2.0,2.0,60,-99.99,,,-99.99,,2013-12-27 00:52:00,
2013-12-26 17:02:00,37.0,24.0,-100.00,South,175,2.0,2.0,60,-99.99,,,-99.99,,2013-12-27 01:02:00,
2013-12-26 17:11:00,37.0,24.0,-100.00,South,175,2.0,2.0,60,-99.99,,,-99.99,,2013-12-27 01:11:00,
2013-12-26 17:21:00,37.0,24.0,-100.00,South,171,1.0,2.0,60,-99.99,,,-99.99,,2013-12-27 01:21:00,
2013-12-26 17:42:00,37.0,24.0,-100.00,South,174,1.0,2.0,60,-99.99,,,-99.99,,2013-12-27 01:42:00,
2013-12-26 17:52:00,37.0,24.0,-100.00,South,174,1.0,2.0,60,-99.99,,,-99.99,,2013-12-27 01:52:00,
2013-12-26 18:01:00,37.0,24.0,-100.00,South,174,1.0,2.0,60,-99.99,,,-99.99,,2013-12-27 02:01:00,
2013-12-26 18:22:00,36.0,22.0,-100.00,SSE,162,1.0,2.0,56,-99.99,,,-99.99,,2013-12-27 02:22:00,
2013-12-26 18:42:00,36.0,17.0,-100.00,SSE,165,1.0,2.0,46,-99.99,,,-99.99,,2013-12-27 02:42:00,
2013-12-26 19:11:00,36.0,16.0,-100.00,SSE,151,1.0,2.0,43,-99.99,,,-99.99,,2013-12-27 03:11:00,
2013-12-26 19:21:00,36.0,22.0,-100.00,South,171,2.0,3.0,56,-99.99,,,-99.99,,2013-12-27 03:21:00,
2013-12-26 19:33:00,36.0,22.0,-100.00,South,171,2.0,3.0,56,-99.99,,,-99.99,,2013-12-27 03:33:00,
2013-12-26 19:43:00,36.0,22.0,-100.00,South,171,2.0,3.0,56,-99.99,,,-99.99,,2013-12-27 03:43:00,
2013-12-26 19:53:00,35.0,22.0,-100.00,South,175,2.0,3.0,59,-99.99,,,-99.99,,2013-12-27 03:53:00,
2013-12-26 20:03:00,35.0,22.0,-100.00,South,175,2.0,3.0,59,-99.99,,,-99.99,,2013-12-27 04:03:00,
2013-12-26 20:12:00,35.0,22.0,-100.00,South,175,2.0,3.0,59,-99.99,,,-99.99,,2013-12-27 04:12:00,
2013-12-26 20:23:00,37.0,19.0,-100.00,North,-999,0.0,1.0,47,-99.99,,,-99.99,,2013-12-27 04:23:00,
2013-12-26 20:42:00,36.0,18.0,-100.00,SSE,165,2.0,2.0,48,-99.99,,,-99.99,,2013-12-27 04:42:00,
2013-12-26 20:53:00,36.0,18.0,-100.00,SSE,165,2.0,2.0,48,-99.99,,,-99.99,,2013-12-27 04:53:00,
2013-12-26 21:02:00,36.0,18.0,-100.00,SSE,165,2.0,2.0,48,-99.99,,,-99.99,,2013-12-27 05:02:00,
2013-12-26 21:42:00,33.0,17.0,-100.00,SSE,160,1.0,3.0,52,-99.99,,,-99.99,,2013-12-27 05:42:00,
2013-12-26 22:42:00,33.0,19.0,-100.00,SSE,162,1.0,2.0,57,-99.99,,,-99.99,,2013-12-27 06:42:00,
2013-12-26 23:21:00,33.0,19.0,-100.00,SSE,168,2.0,3.0,55,-99.99,,,-99.99,,2013-12-27 07:21:00,
2013-12-26 23:32:00,33.0,19.0,-100.00,SSE,168,2.0,3.0,55,-99.99,,,-99.99,,2013-12-27 07:32:00,
2013-12-26 23:42:00,33.0,19.0,-100.00,SSE,168,2.0,3.0,55,-99.99,,,-99.99,,2013-12-27 07:42:00,